Tracking 19489 objects as of 22-Jan-2019
HD Live streaming from Space Station
objects crossing your sky now

COSMOS 2374 (GLONASS)

Track COSMOS 2374 (GLONASS) now!
COSMOS 2374 (GLONASS) is classified as:


NORAD ID: 26566
Int'l Code: 2000-063C
Perigee: 18,964.1 km
Apogee: 19,310.3 km
Inclination: 65.5 °
Period: 675.7 minutes
Semi major axis: 25508 km
RCS: 3.981 m2 (large)
Launch date: October 13, 2000
Source: Commonwealth of Independent States (former USSR) (CIS)
Launch site: TYURATAM MISSILE AND SPACE COMPLEX (TTMTR)
SV:

Russia's version of the GPS system, functions the same; there has been cooperation between the two; much scaled-back constellation
aabbcc
Your satellite tracking list
Your tracking list is empty




NASA's NSSDC Master Catalog

Two Line Element Set (TLE):
1 26566U 00063C   19020.37274278 -.00000005 +00000-0 +00000-0 0  9992
2 26566 065.4547 044.9401 0067857 218.6933 326.1811 02.13099668142121
Source of the keplerian elements: AFSPC